Find Starlink 32432

NORAD ID: 61257 Int'l Des: 2024-175 Owner: SPXS Country: US Constellation: starlink operational
LEOCIRCULAR

リアルタイム位置

3D地球を読み込み中...

Starlink 32432について

説明を読み込み中...

次回通過

Passes for default location (London). Set your location on the main map for personalized predictions.

高度履歴

Loading altitude history...

軌道要素

1 61257U 24175Q 26125.71305593 .00000112 00000-0 15898-4 0 9998
2 61257 53.1605 289.2060 0001283 96.2417 263.8730 15.30191492 90185
Epoch: May 5, 2026 • Age: 18 hours

現在のステータス

高度 475.1 km
速度 7.63 km/s
衛星直下点 17.53°N, 62.15°E
打ち上げ日 Sep 25, 2024
運用期間 1.6 years
タイプ internet

技術仕様

分類 Payload
質量 730.00 kg
乾燥質量 700.00 kg
総質量 730.00 kg
長さ 0.30 m
直径 4.10 m
スパン 29.00 m
形状 Box + pan
製造者 SPXS
バスタイプ Starlink V2M
フェーズステータス In Orbit
所有者/国 SPXS/US

Most Searched